SAS4848 LYTV-ENGM

Flight info

Callsign SAS4848
Flight time N/A
Altitude 36000
Route NIK DCT GACMO DCT VEBAL DCT MIKOV DCT LATAG DCT POKEN DCT SABAK L997 REGMA DCT LUNIP
Aircraft A320/M-SDE3FGHIRWY/LB1

Departure

Time 2026-04-27 11:55
Airport Tivat Airport (LYTV)

Arrival

Time N/A
Airport Oslo-Gardermoen International Airport (ENGM)
Time Latitude Longitude Altitude Speed Heading
2026-04-27 11:25 42.41111 18.71799 9 ft 0 kts 174°
2026-04-27 11:49 42.41110 18.71799 35 ft 1 kts 174°
2026-04-27 11:49 42.41088 18.71790 7 ft 6 kts 191°
2026-04-27 11:49 42.41049 18.71817 7 ft 7 kts 141°
2026-04-27 11:49 42.41009 18.71853 7 ft 7 kts 173°
2026-04-27 11:50 42.40960 18.71807 6 ft 10 kts 219°
2026-04-27 11:50 42.40892 18.71827 5 ft 12 kts 143°
2026-04-27 11:50 42.40814 18.71918 2 ft 17 kts 139°
2026-04-27 11:50 42.40718 18.72031 2 ft 20 kts 139°
2026-04-27 11:51 42.40603 18.72163 0 ft 23 kts 140°
2026-04-27 11:51 42.40481 18.72307 2 ft 24 kts 138°
2026-04-27 11:51 42.40218 18.72618 5 ft 27 kts 139°
2026-04-27 11:52 42.40085 18.72772 2 ft 20 kts 139°
2026-04-27 11:52 42.39968 18.72910 1 ft 23 kts 140°
2026-04-27 11:52 42.39840 18.73058 0 ft 26 kts 139°
2026-04-27 11:52 42.39728 18.73193 3 ft 14 kts 138°
2026-04-27 11:53 42.39657 18.73263 2 ft 11 kts 166°
2026-04-27 11:53 42.39631 18.73294 3 ft 4 kts 64°
2026-04-27 11:53 42.39655 18.73281 4 ft 5 kts 307°
2026-04-27 11:53 42.39666 18.73265 3 ft 0 kts 316°
2026-04-27 11:54 42.39775 18.73136 2 ft 55 kts 319°
2026-04-27 11:54 42.40230 18.72602 5 ft 115 kts 319°
2026-04-27 11:54 42.40952 18.71751 12 ft 158 kts 318°
2026-04-27 11:54 42.41810 18.70748 440 ft 163 kts 317°
2026-04-27 11:55 42.42482 18.69554 1013 ft 162 kts 281°
2026-04-27 11:55 42.42293 18.68085 1531 ft 165 kts 237°
2026-04-27 11:55 42.41421 18.66975 1841 ft 183 kts 217°
2026-04-27 11:55 42.40331 18.65901 2041 ft 205 kts 217°
2026-04-27 11:56 42.39110 18.64696 2347 ft 225 kts 217°
2026-04-27 11:56 42.37838 18.63431 3097 ft 228 kts 217°
2026-04-27 11:56 42.36555 18.62150 3856 ft 231 kts 217°
2026-04-27 11:56 42.35254 18.60845 4578 ft 235 kts 218°
2026-04-27 11:57 42.33913 18.59542 5269 ft 240 kts 211°
2026-04-27 11:57 42.32343 18.58722 5956 ft 246 kts 191°
2026-04-27 11:57 42.30594 18.58657 6539 ft 257 kts 172°
2026-04-27 11:57 42.28809 18.58969 7239 ft 262 kts 172°
2026-04-27 11:58 42.27040 18.59736 7610 ft 280 kts 147°
2026-04-27 11:58 42.25651 18.61590 8243 ft 285 kts 119°
2026-04-27 11:58 42.25055 18.64126 8951 ft 287 kts 91°
2026-04-27 11:58 42.25422 18.66751 9678 ft 287 kts 63°
2026-04-27 11:59 42.26658 18.68841 10360 ft 288 kts 35°
2026-04-27 11:59 42.28466 18.69999 11006 ft 290 kts 18°
2026-04-27 11:59 42.30389 18.70871 11686 ft 293 kts 17°
2026-04-27 11:59 42.32369 18.71663 12088 ft 306 kts
2026-04-27 12:00 42.34557 18.71599 12225 ft 326 kts 352°
2026-04-27 12:00 42.36853 18.71160 12567 ft 339 kts 351°
2026-04-27 12:00 42.39205 18.70692 13171 ft 343 kts 351°
2026-04-27 12:00 42.41579 18.70218 13801 ft 347 kts 351°
2026-04-27 12:01 42.43975 18.69741 14387 ft 350 kts 351°
2026-04-27 12:01 42.46400 18.69258 14956 ft 354 kts 351°
2026-04-27 12:01 42.51542 18.68238 16120 ft 359 kts 351°
2026-04-27 12:02 42.54032 18.67749 16661 ft 363 kts 351°
2026-04-27 12:02 42.56549 18.67257 17199 ft 367 kts 351°
2026-04-27 12:02 42.59088 18.66759 17739 ft 370 kts 350°
2026-04-27 12:02 42.61650 18.66258 18263 ft 374 kts 350°
2026-04-27 12:03 42.64242 18.65749 18734 ft 378 kts 351°
2026-04-27 12:03 42.66856 18.65232 19243 ft 381 kts 350°
2026-04-27 12:03 42.69486 18.64710 19795 ft 383 kts 350°
2026-04-27 12:03 42.72130 18.64188 20355 ft 385 kts 350°
2026-04-27 12:04 42.74791 18.63664 20877 ft 388 kts 350°
2026-04-27 12:04 42.77469 18.63138 21384 ft 390 kts 350°
2026-04-27 12:04 42.80165 18.62606 21878 ft 392 kts 350°
2026-04-27 12:04 42.82876 18.62071 22347 ft 395 kts 350°
2026-04-27 12:05 42.85604 18.61533 22834 ft 397 kts 349°
2026-04-27 12:05 42.88312 18.60995 23303 ft 400 kts 349°
2026-04-27 12:05 42.91071 18.60444 23754 ft 403 kts 349°
2026-04-27 12:05 42.93850 18.59890 24139 ft 405 kts 349°
2026-04-27 12:06 42.96648 18.59332 24534 ft 407 kts 349°
2026-04-27 12:06 42.99455 18.58774 24917 ft 409 kts 349°
2026-04-27 12:06 43.02277 18.58213 25294 ft 411 kts 349°
2026-04-27 12:06 43.05113 18.57648 25659 ft 413 kts 349°
2026-04-27 12:07 43.07959 18.57078 26033 ft 414 kts 349°
2026-04-27 12:07 43.10820 18.56503 26399 ft 417 kts 348°
2026-04-27 12:07 43.13689 18.55911 26731 ft 418 kts 346°
2026-04-27 12:07 43.16492 18.54891 27072 ft 417 kts 340°
2026-04-27 12:08 43.19268 18.53715 27433 ft 419 kts 340°
2026-04-27 12:08 43.22056 18.52535 27779 ft 420 kts 340°
2026-04-27 12:08 43.24856 18.51351 28123 ft 422 kts 340°
2026-04-27 12:08 43.27670 18.50161 28460 ft 424 kts 340°
2026-04-27 12:09 43.30494 18.48967 28777 ft 426 kts 340°
2026-04-27 12:09 43.33332 18.47765 29112 ft 427 kts 340°
2026-04-27 12:09 43.36171 18.46563 29530 ft 427 kts 340°
2026-04-27 12:09 43.39003 18.45365 30009 ft 425 kts 340°
2026-04-27 12:10 43.41826 18.44170 30456 ft 423 kts 339°
2026-04-27 12:10 43.44638 18.42978 30875 ft 422 kts 339°
2026-04-27 12:10 43.47439 18.41789 31266 ft 421 kts 339°
2026-04-27 12:10 43.50237 18.40598 31683 ft 420 kts 339°
2026-04-27 12:11 43.53026 18.39410 32078 ft 420 kts 339°
2026-04-27 12:11 43.55815 18.38221 32478 ft 419 kts 339°
2026-04-27 12:11 43.58594 18.37030 32884 ft 418 kts 339°
2026-04-27 12:11 43.61361 18.35842 33293 ft 416 kts 339°
2026-04-27 12:12 43.64125 18.34658 33700 ft 415 kts 339°
2026-04-27 12:12 43.66879 18.33478 34063 ft 415 kts 339°
2026-04-27 12:12 43.69641 18.32291 34134 ft 418 kts 339°
2026-04-27 12:13 43.75218 18.29895 34139 ft 420 kts 339°
2026-04-27 12:13 43.80805 18.27496 34138 ft 420 kts 339°
2026-04-27 12:14 43.86389 18.25085 34138 ft 420 kts 339°
2026-04-27 12:14 43.91932 18.22684 34157 ft 420 kts 339°
2026-04-27 12:15 43.97519 18.20271 34152 ft 421 kts 340°
2026-04-27 12:15 44.03114 18.17856 34155 ft 421 kts 339°
2026-04-27 12:16 44.08703 18.15423 34163 ft 421 kts 339°
2026-04-27 12:16 44.14293 18.12982 34174 ft 421 kts 340°
2026-04-27 12:17 44.19884 18.10538 34166 ft 421 kts 340°
2026-04-27 12:17 44.25474 18.08105 34173 ft 420 kts 340°
2026-04-27 12:18 44.31056 18.05662 34175 ft 420 kts 340°
2026-04-27 12:18 44.36634 18.03212 34191 ft 420 kts 340°
2026-04-27 12:19 44.41268 18.01180 34182 ft 419 kts 340°
2026-04-27 12:19 44.46830 17.98727 34185 ft 419 kts 340°
2026-04-27 12:20 44.52389 17.96275 34187 ft 419 kts 340°
2026-04-27 12:20 44.57948 17.93820 34191 ft 419 kts 340°
2026-04-27 12:21 44.63496 17.91365 34199 ft 418 kts 340°
2026-04-27 12:21 44.69038 17.88905 34199 ft 417 kts 340°
2026-04-27 12:22 44.74574 17.86438 34199 ft 417 kts 340°
2026-04-27 12:22 44.80102 17.83973 34214 ft 417 kts 340°
2026-04-27 12:23 44.85625 17.81499 34215 ft 416 kts 340°
2026-04-27 12:23 44.91135 17.79027 34206 ft 416 kts 341°
2026-04-27 12:24 44.96643 17.76562 34211 ft 415 kts 341°
2026-04-27 12:24 45.02138 17.74099 34218 ft 414 kts 341°
2026-04-27 12:25 45.07624 17.71625 34213 ft 414 kts 341°
2026-04-27 12:25 45.13102 17.69154 34214 ft 413 kts 341°
2026-04-27 12:26 45.18581 17.66679 34212 ft 413 kts 341°
2026-04-27 12:26 45.24057 17.64202 34225 ft 413 kts 341°
2026-04-27 12:27 45.29522 17.61725 34216 ft 412 kts 341°
2026-04-27 12:27 45.34972 17.59240 34218 ft 411 kts 341°
2026-04-27 12:28 45.40409 17.56760 34226 ft 410 kts 341°
2026-04-27 12:28 45.45843 17.54281 34226 ft 410 kts 341°
2026-04-27 12:29 45.51272 17.51803 34218 ft 410 kts 341°
2026-04-27 12:29 45.56701 17.49316 34218 ft 410 kts 341°
2026-04-27 12:30 45.62129 17.46821 34230 ft 410 kts 341°
2026-04-27 12:30 45.67548 17.44321 34221 ft 409 kts 341°
2026-04-27 12:31 45.72950 17.41828 34230 ft 407 kts 341°
2026-04-27 12:31 45.78334 17.39326 34228 ft 406 kts 341°
2026-04-27 12:32 45.83677 17.36854 34225 ft 406 kts 341°
2026-04-27 12:32 45.89054 17.34365 34235 ft 406 kts 341°
2026-04-27 12:33 45.94429 17.31877 34233 ft 405 kts 341°
2026-04-27 12:33 45.99822 17.29529 34232 ft 406 kts 348°
2026-04-27 12:34 46.05395 17.28234 34224 ft 405 kts 350°
2026-04-27 12:34 46.10960 17.26963 34238 ft 405 kts 350°
2026-04-27 12:35 46.16512 17.25684 34239 ft 404 kts 349°
2026-04-27 12:35 46.22050 17.24397 34236 ft 403 kts 349°
2026-04-27 12:36 46.27578 17.23114 34232 ft 402 kts 349°
2026-04-27 12:36 46.33102 17.21823 34243 ft 402 kts 349°
2026-04-27 12:37 46.38629 17.20547 34239 ft 402 kts 349°
2026-04-27 12:37 46.44155 17.19263 34237 ft 402 kts 349°
2026-04-27 12:38 46.49674 17.17973 34235 ft 402 kts 349°
2026-04-27 12:38 46.55191 17.16688 34234 ft 401 kts 349°
2026-04-27 12:39 46.60709 17.15391 34234 ft 401 kts 349°
2026-04-27 12:39 46.66218 17.14095 34234 ft 401 kts 349°
2026-04-27 12:40 46.71727 17.12796 34239 ft 401 kts 349°
2026-04-27 12:40 46.77240 17.11498 34244 ft 401 kts 349°
2026-04-27 12:41 46.82725 17.10202 34240 ft 401 kts 349°
2026-04-27 12:41 46.88248 17.08881 34238 ft 400 kts 349°
2026-04-27 12:42 46.93748 17.07576 34241 ft 400 kts 349°
2026-04-27 12:42 46.99245 17.06275 34256 ft 400 kts 349°
2026-04-27 12:43 47.04731 17.04966 34241 ft 399 kts 349°
2026-04-27 12:43 47.10170 17.03668 34241 ft 398 kts 349°
2026-04-27 12:44 47.15642 17.02366 34232 ft 398 kts 349°
2026-04-27 12:44 47.21108 17.01063 34246 ft 398 kts 348°
2026-04-27 12:45 47.26564 16.99743 34249 ft 397 kts 348°
2026-04-27 12:45 47.32012 16.98430 34246 ft 396 kts 348°
2026-04-27 12:46 47.37451 16.97121 34236 ft 396 kts 348°
2026-04-27 12:46 47.42884 16.95809 34254 ft 395 kts 348°
2026-04-27 12:47 47.48302 16.94493 34245 ft 394 kts 348°
2026-04-27 12:47 47.53718 16.93180 34234 ft 394 kts 348°
2026-04-27 12:48 47.59120 16.91865 34228 ft 393 kts 348°
2026-04-27 12:48 47.64518 16.90544 34232 ft 393 kts 348°
2026-04-27 12:49 47.69914 16.89223 34230 ft 393 kts 348°
2026-04-27 12:49 47.75306 16.87913 34239 ft 393 kts 348°
2026-04-27 12:50 47.80691 16.86599 34242 ft 392 kts 348°
2026-04-27 12:50 47.86084 16.85271 34258 ft 392 kts 348°
2026-04-27 12:51 47.91462 16.83945 34246 ft 391 kts 348°
2026-04-27 12:51 47.96828 16.82623 34246 ft 391 kts 348°
2026-04-27 12:52 48.02158 16.81298 34236 ft 390 kts 348°
2026-04-27 12:52 48.07515 16.79972 34254 ft 390 kts 348°
2026-04-27 12:53 48.15542 16.77977 34247 ft 389 kts 348°
2026-04-27 12:53 48.20883 16.76641 34244 ft 389 kts 348°
2026-04-27 12:54 48.26218 16.75310 34241 ft 389 kts 348°
2026-04-27 12:54 48.31551 16.73974 34252 ft 388 kts 347°
2026-04-27 12:55 48.36878 16.72642 34248 ft 388 kts 347°
2026-04-27 12:55 48.42202 16.71303 34246 ft 388 kts 347°
2026-04-27 12:56 48.47523 16.69962 34246 ft 387 kts 347°
2026-04-27 12:56 48.52836 16.68610 34261 ft 387 kts 347°
2026-04-27 12:57 48.58151 16.67262 34231 ft 387 kts 347°
2026-04-27 12:57 48.63470 16.65919 34228 ft 388 kts 347°
2026-04-27 12:58 48.68794 16.64567 34227 ft 388 kts 347°
2026-04-27 12:58 48.74122 16.63204 34230 ft 388 kts 347°
2026-04-27 12:59 48.79451 16.61837 34254 ft 388 kts 347°
2026-04-27 12:59 48.84760 16.60389 34249 ft 387 kts 346°
2026-04-27 13:00 48.90055 16.58882 34244 ft 387 kts 346°
2026-04-27 13:00 48.95307 16.57375 34241 ft 387 kts 346°
2026-04-27 13:01 49.00599 16.55882 34257 ft 387 kts 346°